contact:dominique.lefevre@mio.osupytheas.fr, maurice.libes@osupytheas.fr, didier.mallarino@osupytheas.fr
Project:EMSO http://www.emso-fr.org/EMSO-France
Depth: 2436.0 m
Title:EMSO Ligure Ouest : Data MII capteur CSTAR
DateTime,Latitude,Longitude,Instrument_Serial,Reference_Counts,Signal_Counts,Corrected_Signal_raw_counts,Calculated_Beam_c_inverse_meters,Internal_thermistor_counts
DateTime,Latitude,Longitude,Instrument_Serial,Reference_Counts,Signal_Counts,Corrected_Signal_raw_counts,Calculated_Beam_c_inverse_meters,Internal_thermistor_counts
2023-03-14T00:02:16,42.805,6.029,CST-1368DR,4354,4703,11473,01.233,551
2023-03-14T00:05:17,42.805,6.029,CST-1368DR,4354,4705,11477,01.232,551
2023-03-14T00:08:19,42.805,6.029,CST-1368DR,4354,4706,11480,01.231,551
2023-03-14T00:11:21,42.805,6.029,CST-1368DR,4354,4703,11474,01.233,551
2023-03-14T00:14:22,42.805,6.029,CST-1368DR,4354,4705,11477,01.232,551
2023-03-14T00:17:24,42.805,6.029,CST-1368DR,4354,4705,11477,01.232,551
2023-03-14T00:20:25,42.805,6.029,CST-1368DR,4354,4707,11482,01.230,551
2023-03-14T00:23:27,42.805,6.029,CST-1368DR,4354,4700,11466,01.236,551
2023-03-14T00:26:28,42.805,6.029,CST-1368DR,4354,4702,11471,01.234,551
2023-03-14T00:29:30,42.805,6.029,CST-1368DR,4354,4705,11479,01.231,551
2023-03-14T00:32:32,42.805,6.029,CST-1368DR,4353,4690,11444,01.243,551
2023-03-14T00:35:33,42.805,6.029,CST-1368DR,4354,4704,11477,01.232,551
2023-03-14T00:38:35,42.805,6.029,CST-1368DR,4354,4702,11472,01.234,551
2023-03-14T00:41:36,42.805,6.029,CST-1368DR,4354,4702,11472,01.234,551
2023-03-14T00:44:38,42.805,6.029,CST-1368DR,4354,4700,11467,01.235,551
2023-03-14T00:47:40,42.805,6.029,CST-1368DR,4354,4704,11476,01.232,551
2023-03-14T00:50:41,42.805,6.029,CST-1368DR,4354,4702,11470,01.234,551
2023-03-14T00:53:43,42.805,6.029,CST-1368DR,4354,4700,11466,01.236,551
2023-03-14T00:56:44,42.805,6.029,CST-1368DR,4354,4699,11463,01.237,551
2023-03-14T00:59:46,42.805,6.029,CST-1368DR,4354,4700,11466,01.236,551
2023-03-14T01:02:47,42.805,6.029,CST-1368DR,4354,4700,11466,01.236,551
2023-03-14T01:05:49,42.805,6.029,CST-1368DR,4354,4702,11472,01.234,551
2023-03-14T01:08:51,42.805,6.029,CST-1368DR,4354,4699,11465,01.236,551
2023-03-14T01:11:52,42.805,6.029,CST-1368DR,4354,4704,11477,01.232,551
2023-03-14T01:14:54,42.805,6.029,CST-1368DR,4354,4702,11471,01.234,551
2023-03-14T01:17:55,42.805,6.029,CST-1368DR,4354,4704,11475,01.233,551
2023-03-14T01:20:57,42.805,6.029,CST-1368DR,4354,4704,11476,01.232,551
2023-03-14T01:23:58,42.805,6.029,CST-1368DR,4354,4702,11471,01.234,551
2023-03-14T01:27:00,42.805,6.029,CST-1368DR,4354,4700,11467,01.235,551
2023-03-14T01:30:02,42.805,6.029,CST-1368DR,4354,4703,11473,01.233,551
2023-03-14T01:33:03,42.805,6.029,CST-1368DR,4354,4703,11474,01.233,551
2023-03-14T01:36:05,42.805,6.029,CST-1368DR,4354,4710,11490,01.227,551
2023-03-14T01:39:06,42.805,6.029,CST-1368DR,4354,4708,11486,01.229,551
2023-03-14T01:42:08,42.805,6.029,CST-1368DR,4354,4705,11477,01.232,551
2023-03-14T01:45:10,42.805,6.029,CST-1368DR,4354,4702,11471,01.234,551
2023-03-14T01:48:11,42.805,6.029,CST-1368DR,4354,4705,11479,01.231,551
2023-03-14T01:51:13,42.805,6.029,CST-1368DR,4354,4704,11476,01.232,551
2023-03-14T01:54:14,42.805,6.029,CST-1368DR,4354,4707,11482,01.230,551
2023-03-14T01:57:16,42.805,6.029,CST-1368DR,4354,4703,11474,01.233,551
2023-03-14T02:00:17,42.805,6.029,CST-1368DR,4354,4703,11472,01.234,551
2023-03-14T02:03:19,42.805,6.029,CST-1368DR,4354,4704,11476,01.232,551
2023-03-14T02:06:21,42.805,6.029,CST-1368DR,4354,4704,11476,01.232,551
2023-03-14T02:09:22,42.805,6.029,CST-1368DR,4354,4688,11436,01.246,551
2023-03-14T02:12:24,42.805,6.029,CST-1368DR,4354,4702,11471,01.234,551
2023-03-14T02:15:25,42.805,6.029,CST-1368DR,4354,4700,11466,01.236,551
2023-03-14T02:18:27,42.805,6.029,CST-1368DR,4354,4702,11472,01.234,551
2023-03-14T02:21:28,42.805,6.029,CST-1368DR,4354,4705,11477,01.232,551
2023-03-14T02:24:30,42.805,6.029,CST-1368DR,4354,4702,11472,01.234,551
2023-03-14T02:27:32,42.805,6.029,CST-1368DR,4354,4701,11469,01.235,551
2023-03-14T02:30:33,42.805,6.029,CST-1368DR,4354,4702,11471,01.234,551
2023-03-14T02:33:35,42.805,6.029,CST-1368DR,4354,4702,11470,01.234,551
2023-03-14T02:36:36,42.805,6.029,CST-1368DR,4354,4703,11472,01.234,551
2023-03-14T02:39:38,42.805,6.029,CST-1368DR,4354,4700,11465,01.236,551
2023-03-14T02:42:39,42.805,6.029,CST-1368DR,4353,4696,11459,01.238,551
2023-03-14T02:45:41,42.805,6.029,CST-1368DR,4354,4703,11472,01.234,551
2023-03-14T02:48:43,42.805,6.029,CST-1368DR,4354,4700,11466,01.236,551
2023-03-14T02:51:44,42.805,6.029,CST-1368DR,4354,4700,11466,01.236,551
2023-03-14T02:54:46,42.805,6.029,CST-1368DR,4354,4701,11468,01.235,551
2023-03-14T02:57:47,42.805,6.029,CST-1368DR,4354,4698,11462,01.237,551
2023-03-14T03:00:49,42.805,6.029,CST-1368DR,4354,4703,11472,01.234,551
2023-03-14T03:03:51,42.805,6.029,CST-1368DR,4353,4698,11463,01.237,551
2023-03-14T03:06:52,42.805,6.029,CST-1368DR,4353,4698,11463,01.237,551
2023-03-14T03:09:54,42.805,6.029,CST-1368DR,4354,4703,11474,01.233,551
2023-03-14T03:12:55,42.805,6.029,CST-1368DR,4354,4698,11462,01.237,551
2023-03-14T03:15:57,42.805,6.029,CST-1368DR,4354,4703,11472,01.234,551
2023-03-14T03:18:58,42.805,6.029,CST-1368DR,4354,4700,11466,01.236,551
2023-03-14T03:22:00,42.805,6.029,CST-1368DR,4354,4704,11477,01.232,551
2023-03-14T03:25:02,42.805,6.029,CST-1368DR,4354,4704,11475,01.233,551
2023-03-14T03:28:03,42.805,6.029,CST-1368DR,4354,4705,11477,01.232,551
2023-03-14T03:31:05,42.805,6.029,CST-1368DR,4354,4702,11472,01.234,551
2023-03-14T03:34:06,42.805,6.029,CST-1368DR,4353,4701,11471,01.234,551
2023-03-14T03:37:08,42.805,6.029,CST-1368DR,4353,4702,11474,01.233,551
2023-03-14T03:40:09,42.805,6.029,CST-1368DR,4353,4702,11473,01.233,551
2023-03-14T03:43:11,42.805,6.029,CST-1368DR,4354,4702,11470,01.234,551
2023-03-14T03:46:13,42.805,6.029,CST-1368DR,4354,4702,11472,01.234,551
2023-03-14T03:49:14,42.805,6.029,CST-1368DR,4354,4701,11468,01.235,551
2023-03-14T03:52:16,42.805,6.029,CST-1368DR,4354,4705,11477,01.232,551
2023-03-14T03:55:17,42.805,6.029,CST-1368DR,4353,4698,11464,01.236,551
2023-03-14T03:58:19,42.805,6.029,CST-1368DR,4354,4701,11469,01.235,551
2023-03-14T04:01:21,42.805,6.029,CST-1368DR,4354,4703,11473,01.233,551
2023-03-14T04:04:22,42.805,6.029,CST-1368DR,4353,4702,11473,01.233,551
2023-03-14T04:07:24,42.805,6.029,CST-1368DR,4354,4705,11479,01.231,551
2023-03-14T04:10:25,42.805,6.029,CST-1368DR,4354,4705,11478,01.231,551
2023-03-14T04:13:27,42.805,6.029,CST-1368DR,4353,4691,11448,01.242,551
2023-03-14T04:16:28,42.805,6.029,CST-1368DR,4354,4707,11483,01.230,551
2023-03-14T04:19:30,42.805,6.029,CST-1368DR,4354,4701,11469,01.235,551
2023-03-14T04:22:32,42.805,6.029,CST-1368DR,4354,4705,11479,01.231,551
2023-03-14T04:25:33,42.805,6.029,CST-1368DR,4353,4705,11482,01.230,551
2023-03-14T04:28:35,42.805,6.029,CST-1368DR,4353,4705,11482,01.230,551
2023-03-14T04:31:36,42.805,6.029,CST-1368DR,4354,4706,11482,01.230,551
2023-03-14T04:34:38,42.805,6.029,CST-1368DR,4354,4707,11483,01.230,551
2023-03-14T04:37:39,42.805,6.029,CST-1368DR,4354,4708,11486,01.229,551
2023-03-14T04:40:41,42.805,6.029,CST-1368DR,4353,4709,11490,01.227,551
2023-03-14T04:43:43,42.805,6.029,CST-1368DR,4353,4702,11474,01.233,551
2023-03-14T04:46:44,42.805,6.029,CST-1368DR,4353,4703,11476,01.232,551
2023-03-14T04:49:46,42.805,6.029,CST-1368DR,4353,4700,11470,01.234,551
2023-03-14T04:52:47,42.805,6.029,CST-1368DR,4354,4706,11481,01.230,551
2023-03-14T04:55:49,42.805,6.029,CST-1368DR,4354,4704,11475,01.233,551
2023-03-14T04:58:51,42.805,6.029,CST-1368DR,4354,4710,11490,01.227,551
2023-03-14T05:01:52,42.805,6.029,CST-1368DR,4353,4707,11486,01.229,551
2023-03-14T05:04:54,42.805,6.029,CST-1368DR,4353,4702,11474,01.233,551
2023-03-14T05:07:55,42.805,6.029,CST-1368DR,4353,4707,11486,01.229,551
2023-03-14T05:10:57,42.805,6.029,CST-1368DR,4353,4706,11482,01.230,551
2023-03-14T05:13:58,42.805,6.029,CST-1368DR,4353,4704,11479,01.231,551
2023-03-14T05:17:00,42.805,6.029,CST-1368DR,4353,4705,11481,01.230,551
2023-03-14T05:20:02,42.805,6.029,CST-1368DR,4353,4712,11497,01.225,551
2023-03-14T05:23:03,42.805,6.029,CST-1368DR,4353,4700,11469,01.235,551
2023-03-14T05:26:05,42.805,6.029,CST-1368DR,4353,4707,11486,01.229,551
2023-03-14T05:29:06,42.805,6.029,CST-1368DR,4353,4704,11479,01.231,551
2023-03-14T05:32:08,42.805,6.029,CST-1368DR,4354,4707,11484,01.229,551
2023-03-14T05:35:09,42.805,6.029,CST-1368DR,4354,4709,11487,01.228,551
2023-03-14T05:38:11,42.805,6.029,CST-1368DR,4354,4708,11485,01.229,551
2023-03-14T05:41:13,42.805,6.029,CST-1368DR,4353,4705,11480,01.231,551
2023-03-14T05:44:14,42.805,6.029,CST-1368DR,4353,4703,11476,01.232,551
2023-03-14T05:47:16,42.805,6.029,CST-1368DR,4354,4712,11495,01.226,551
2023-03-14T05:50:17,42.805,6.029,CST-1368DR,4353,4708,11488,01.228,551
2023-03-14T05:53:19,42.805,6.029,CST-1368DR,4353,4706,11483,01.230,551
2023-03-14T05:56:21,42.805,6.029,CST-1368DR,4353,4708,11488,01.228,551
2023-03-14T05:59:22,42.805,6.029,CST-1368DR,4353,4708,11488,01.228,551
2023-03-14T06:02:24,42.805,6.029,CST-1368DR,4353,4714,11502,01.223,551
2023-03-14T06:05:25,42.805,6.029,CST-1368DR,4353,4705,11481,01.230,551
2023-03-14T06:08:27,42.805,6.029,CST-1368DR,4353,4706,11482,01.230,551
2023-03-14T06:11:28,42.805,6.029,CST-1368DR,4353,4708,11488,01.228,551
2023-03-14T06:14:30,42.805,6.029,CST-1368DR,4353,4708,11489,01.228,551
2023-03-14T06:17:32,42.805,6.029,CST-1368DR,4353,4707,11485,01.229,551
2023-03-14T06:20:33,42.805,6.029,CST-1368DR,4353,4712,11498,01.224,551
2023-03-14T06:23:35,42.805,6.029,CST-1368DR,4353,4711,11496,01.225,551
2023-03-14T06:26:36,42.805,6.029,CST-1368DR,4353,4706,11484,01.229,551
2023-03-14T06:29:38,42.805,6.029,CST-1368DR,4353,4705,11481,01.230,551
2023-03-14T06:32:39,42.805,6.029,CST-1368DR,4353,4706,11484,01.229,551
2023-03-14T06:35:41,42.805,6.029,CST-1368DR,4353,4708,11488,01.228,551
2023-03-14T06:38:43,42.805,6.029,CST-1368DR,4353,4717,11509,01.221,551
2023-03-14T06:41:44,42.805,6.029,CST-1368DR,4354,4722,11519,01.217,551
2023-03-14T06:44:46,42.805,6.029,CST-1368DR,4353,4707,11486,01.229,551
2023-03-14T06:47:47,42.805,6.029,CST-1368DR,4353,4713,11499,01.224,551
2023-03-14T06:50:49,42.805,6.029,CST-1368DR,4353,4710,11493,01.226,551
2023-03-14T06:53:51,42.805,6.029,CST-1368DR,4353,4710,11492,01.227,551
2023-03-14T06:56:52,42.805,6.029,CST-1368DR,4353,4712,11499,01.224,551
2023-03-14T06:59:54,42.805,6.029,CST-1368DR,4353,4711,11496,01.225,551
2023-03-14T07:02:55,42.805,6.029,CST-1368DR,4353,4712,11498,01.224,551
2023-03-14T07:05:57,42.805,6.029,CST-1368DR,4353,4714,11502,01.223,551
2023-03-14T07:08:58,42.805,6.029,CST-1368DR,4353,4711,11496,01.225,551
2023-03-14T07:12:00,42.805,6.029,CST-1368DR,4353,4717,11511,01.220,551
2023-03-14T07:15:02,42.805,6.029,CST-1368DR,4353,4707,11485,01.229,551
2023-03-14T07:18:03,42.805,6.029,CST-1368DR,4353,4712,11498,01.224,551
2023-03-14T07:21:05,42.805,6.029,CST-1368DR,4353,4713,11499,01.224,551
2023-03-14T07:24:06,42.805,6.029,CST-1368DR,4353,4722,11523,01.216,551
2023-03-14T07:27:08,42.805,6.029,CST-1368DR,4353,4712,11497,01.225,551
2023-03-14T07:30:09,42.805,6.029,CST-1368DR,4353,4711,11495,01.226,551
2023-03-14T07:33:11,42.805,6.029,CST-1368DR,4353,4711,11495,01.226,551
2023-03-14T07:36:13,42.805,6.029,CST-1368DR,4353,4714,11502,01.223,551
2023-03-14T07:39:14,42.805,6.029,CST-1368DR,4353,4710,11494,01.226,551
2023-03-14T07:42:16,42.805,6.029,CST-1368DR,4353,4710,11492,01.227,551
2023-03-14T07:45:17,42.805,6.029,CST-1368DR,4353,4712,11497,01.225,551
2023-03-14T07:48:19,42.805,6.029,CST-1368DR,4353,4710,11493,01.226,551
2023-03-14T07:51:20,42.805,6.029,CST-1368DR,4353,4721,11521,01.216,551
2023-03-14T07:54:22,42.805,6.029,CST-1368DR,4353,4718,11513,01.219,551
2023-03-14T07:57:24,42.805,6.029,CST-1368DR,4353,4710,11492,01.227,551
2023-03-14T08:00:25,42.805,6.029,CST-1368DR,4353,4717,11511,01.220,551
2023-03-14T08:03:27,42.805,6.029,CST-1368DR,4353,4710,11494,01.226,551
2023-03-14T08:06:28,42.805,6.029,CST-1368DR,4353,4710,11492,01.227,551
2023-03-14T08:09:30,42.805,6.029,CST-1368DR,4353,4721,11521,01.216,551
2023-03-14T08:12:32,42.805,6.029,CST-1368DR,4353,4714,11503,01.223,551
2023-03-14T08:15:33,42.805,6.029,CST-1368DR,4353,4714,11503,01.223,551
2023-03-14T08:18:35,42.805,6.029,CST-1368DR,4353,4714,11502,01.223,551
2023-03-14T08:21:36,42.805,6.029,CST-1368DR,4353,4712,11498,01.224,551
2023-03-14T08:24:38,42.805,6.029,CST-1368DR,4353,4707,11485,01.229,551
2023-03-14T08:27:39,42.805,6.029,CST-1368DR,4353,4715,11505,01.222,551
2023-03-14T08:30:41,42.805,6.029,CST-1368DR,4353,4713,11501,01.223,551
2023-03-14T08:33:43,42.805,6.029,CST-1368DR,4353,4710,11493,01.226,551
2023-03-14T08:36:44,42.805,6.029,CST-1368DR,4353,4714,11503,01.223,551
2023-03-14T08:39:46,42.805,6.029,CST-1368DR,4353,4718,11513,01.219,551
2023-03-14T08:42:47,42.805,6.029,CST-1368DR,4353,4713,11501,01.223,551
2023-03-14T08:45:49,42.805,6.029,CST-1368DR,4353,4718,11513,01.219,551
2023-03-14T08:48:50,42.805,6.029,CST-1368DR,4353,4715,11504,01.222,551
2023-03-14T08:51:52,42.805,6.029,CST-1368DR,4353,4717,11509,01.221,551
2023-03-14T08:54:54,42.805,6.029,CST-1368DR,4353,4713,11501,01.223,551
2023-03-14T08:57:55,42.805,6.029,CST-1368DR,4353,4714,11502,01.223,551
2023-03-14T09:00:57,42.805,6.029,CST-1368DR,4353,4708,11488,01.228,551
2023-03-14T09:03:58,42.805,6.029,CST-1368DR,4353,4713,11500,01.224,551
2023-03-14T09:07:00,42.805,6.029,CST-1368DR,4353,4710,11492,01.227,551
2023-03-14T09:10:02,42.805,6.029,CST-1368DR,4353,4718,11513,01.219,551
2023-03-14T09:13:03,42.805,6.029,CST-1368DR,4353,4723,11524,01.215,551
2023-03-14T09:16:05,42.805,6.029,CST-1368DR,4353,4716,11509,01.221,551
2023-03-14T09:19:06,42.805,6.029,CST-1368DR,4353,4720,11517,01.218,551
2023-03-14T09:22:08,42.805,6.029,CST-1368DR,4353,4711,11496,01.225,551
2023-03-14T09:25:09,42.805,6.029,CST-1368DR,4353,4722,11521,01.216,551
2023-03-14T09:28:11,42.805,6.029,CST-1368DR,4353,4718,11512,01.220,551
2023-03-14T09:31:13,42.805,6.029,CST-1368DR,4353,4713,11499,01.224,551
2023-03-14T09:34:14,42.805,6.029,CST-1368DR,4353,4715,11504,01.222,551
2023-03-14T09:37:16,42.805,6.029,CST-1368DR,4353,4718,11512,01.220,551
2023-03-14T09:40:17,42.805,6.029,CST-1368DR,4353,4715,11505,01.222,551
2023-03-14T09:43:19,42.805,6.029,CST-1368DR,4353,4719,11515,01.219,551
2023-03-14T09:46:21,42.805,6.029,CST-1368DR,4353,4714,11502,01.223,551
2023-03-14T09:49:22,42.805,6.029,CST-1368DR,4353,4711,11495,01.226,551
2023-03-14T09:52:24,42.805,6.029,CST-1368DR,4353,4716,11507,01.221,551
2023-03-14T09:55:25,42.805,6.029,CST-1368DR,4353,4704,11479,01.231,551
2023-03-14T09:58:27,42.805,6.029,CST-1368DR,4353,4707,11486,01.229,551
2023-03-14T10:01:28,42.805,6.029,CST-1368DR,4353,4714,11503,01.223,551
2023-03-14T10:04:30,42.805,6.029,CST-1368DR,4353,4714,11503,01.223,551
2023-03-14T10:07:32,42.805,6.029,CST-1368DR,4353,4712,11498,01.224,551
2023-03-14T10:10:33,42.805,6.029,CST-1368DR,4353,4714,11502,01.223,551
2023-03-14T10:13:35,42.805,6.029,CST-1368DR,4353,4711,11496,01.225,551
2023-03-14T10:16:36,42.805,6.029,CST-1368DR,4353,4713,11500,01.224,551
2023-03-14T10:19:38,42.805,6.029,CST-1368DR,4353,4716,11507,01.221,551
2023-03-14T10:22:39,42.805,6.029,CST-1368DR,4353,4716,11507,01.221,551
2023-03-14T10:25:41,42.805,6.029,CST-1368DR,4353,4715,11505,01.222,551
2023-03-14T10:28:43,42.805,6.029,CST-1368DR,4353,4713,11501,01.223,551
2023-03-14T10:31:44,42.805,6.029,CST-1368DR,4353,4713,11499,01.224,551
2023-03-14T10:34:46,42.805,6.029,CST-1368DR,4353,4715,11504,01.222,551
2023-03-14T10:37:47,42.805,6.029,CST-1368DR,4353,4712,11498,01.224,551
2023-03-14T10:40:49,42.805,6.029,CST-1368DR,4353,4714,11502,01.223,551
2023-03-14T10:43:50,42.805,6.029,CST-1368DR,4353,4716,11509,01.221,551
2023-03-14T10:46:52,42.805,6.029,CST-1368DR,4353,4720,11516,01.218,551
2023-03-14T10:49:54,42.805,6.029,CST-1368DR,4353,4712,11499,01.224,551
2023-03-14T10:52:55,42.805,6.029,CST-1368DR,4353,4709,11490,01.227,551
2023-03-14T10:55:57,42.805,6.029,CST-1368DR,4353,4714,11502,01.223,551
2023-03-14T10:58:58,42.805,6.029,CST-1368DR,4353,4712,11498,01.224,551
2023-03-14T11:02:00,42.805,6.029,CST-1368DR,4353,4717,11509,01.221,551
2023-03-14T11:05:02,42.805,6.029,CST-1368DR,4353,4718,11512,01.220,551
2023-03-14T11:08:03,42.805,6.029,CST-1368DR,4353,4717,11511,01.220,551
2023-03-14T11:11:05,42.805,6.029,CST-1368DR,4353,4718,11512,01.220,551
2023-03-14T11:14:06,42.805,6.029,CST-1368DR,4353,4719,11514,01.219,551
2023-03-14T11:17:08,42.805,6.029,CST-1368DR,4353,4716,11507,01.221,551
2023-03-14T11:20:09,42.805,6.029,CST-1368DR,4353,4705,11482,01.230,551
2023-03-14T11:23:11,42.805,6.029,CST-1368DR,4353,4706,11483,01.230,551
2023-03-14T11:26:13,42.805,6.029,CST-1368DR,4353,4709,11491,01.227,551
2023-03-14T11:29:14,42.805,6.029,CST-1368DR,4353,4706,11484,01.229,551
2023-03-14T11:32:16,42.805,6.029,CST-1368DR,4353,4703,11477,01.232,551
2023-03-14T11:35:17,42.805,6.029,CST-1368DR,4353,4708,11488,01.228,551
2023-03-14T11:38:19,42.805,6.029,CST-1368DR,4353,4703,11476,01.232,551
2023-03-14T11:41:20,42.805,6.029,CST-1368DR,4353,4705,11480,01.231,551
2023-03-14T11:44:22,42.805,6.029,CST-1368DR,4353,4705,11480,01.231,551
2023-03-14T11:47:24,42.805,6.029,CST-1368DR,4353,4701,11472,01.234,551
2023-03-14T11:50:25,42.805,6.029,CST-1368DR,4353,4713,11499,01.224,551
2023-03-14T11:53:27,42.805,6.029,CST-1368DR,4353,4718,11513,01.219,551
2023-03-14T11:56:28,42.805,6.029,CST-1368DR,4353,4712,11497,01.225,551
2023-03-14T11:59:30,42.805,6.029,CST-1368DR,4353,4712,11497,01.225,551
2023-03-14T12:02:32,42.805,6.029,CST-1368DR,4353,4713,11500,01.224,551
2023-03-14T12:05:33,42.805,6.029,CST-1368DR,4353,4710,11492,01.227,551
2023-03-14T12:08:35,42.805,6.029,CST-1368DR,4353,4711,11496,01.225,551
2023-03-14T12:11:36,42.805,6.029,CST-1368DR,4353,4722,11522,01.216,551
2023-03-14T12:14:38,42.805,6.029,CST-1368DR,4353,4713,11501,01.223,551
2023-03-14T12:17:39,42.805,6.029,CST-1368DR,4353,4713,11500,01.224,551
2023-03-14T12:20:41,42.805,6.029,CST-1368DR,4353,4709,11491,01.227,551
2023-03-14T12:23:43,42.805,6.029,CST-1368DR,4353,4708,11489,01.228,551
2023-03-14T12:26:44,42.805,6.029,CST-1368DR,4353,4706,11484,01.229,551
2023-03-14T12:29:46,42.805,6.029,CST-1368DR,4353,4710,11492,01.227,551
2023-03-14T12:32:47,42.805,6.029,CST-1368DR,4353,4709,11491,01.227,551
2023-03-14T12:35:49,42.805,6.029,CST-1368DR,4353,4718,11513,01.219,551
2023-03-14T12:38:50,42.805,6.029,CST-1368DR,4353,4708,11488,01.228,551
2023-03-14T12:41:52,42.805,6.029,CST-1368DR,4353,4716,11507,01.221,551
2023-03-14T12:44:54,42.805,6.029,CST-1368DR,4353,4711,11496,01.225,551
2023-03-14T12:47:55,42.805,6.029,CST-1368DR,4353,4708,11488,01.228,551
2023-03-14T12:50:57,42.805,6.029,CST-1368DR,4353,4709,11490,01.227,551
2023-03-14T12:53:58,42.805,6.029,CST-1368DR,4353,4715,11505,01.222,551
2023-03-14T12:57:00,42.805,6.029,CST-1368DR,4353,4712,11497,01.225,551
2023-03-14T13:00:01,42.805,6.029,CST-1368DR,4353,4708,11489,01.228,551
2023-03-14T13:03:03,42.805,6.029,CST-1368DR,4353,4708,11488,01.228,551
2023-03-14T13:06:05,42.805,6.029,CST-1368DR,4353,4707,11486,01.229,551
2023-03-14T13:09:06,42.805,6.029,CST-1368DR,4353,4712,11498,01.224,551
2023-03-14T13:12:08,42.805,6.029,CST-1368DR,4353,4710,11494,01.226,551
2023-03-14T13:15:09,42.805,6.029,CST-1368DR,4353,4700,11468,01.235,551
2023-03-14T13:18:11,42.805,6.029,CST-1368DR,4353,4711,11495,01.226,551
2023-03-14T13:21:13,42.805,6.029,CST-1368DR,4353,4707,11486,01.229,551
2023-03-14T13:24:14,42.805,6.029,CST-1368DR,4353,4716,11507,01.221,551
2023-03-14T13:27:16,42.805,6.029,CST-1368DR,4353,4714,11503,01.223,551
2023-03-14T13:30:17,42.805,6.029,CST-1368DR,4353,4706,11482,01.230,551
2023-03-14T13:33:19,42.805,6.029,CST-1368DR,4353,4707,11485,01.229,551
2023-03-14T13:36:20,42.805,6.029,CST-1368DR,4353,4706,11483,01.230,551
2023-03-14T13:39:22,42.805,6.029,CST-1368DR,4353,4708,11488,01.228,551
2023-03-14T13:42:24,42.805,6.029,CST-1368DR,4353,4705,11482,01.230,551
2023-03-14T13:45:25,42.805,6.029,CST-1368DR,4353,4706,11484,01.229,551
2023-03-14T13:48:27,42.805,6.029,CST-1368DR,4353,4709,11490,01.227,551
2023-03-14T13:51:28,42.805,6.029,CST-1368DR,4353,4705,11482,01.230,551
2023-03-14T13:54:30,42.805,6.029,CST-1368DR,4353,4707,11487,01.228,551
2023-03-14T13:57:31,42.805,6.029,CST-1368DR,4353,4708,11489,01.228,551
2023-03-14T14:00:33,42.805,6.029,CST-1368DR,4353,4705,11482,01.230,551
2023-03-14T14:03:35,42.805,6.029,CST-1368DR,4353,4706,11484,01.229,551
2023-03-14T14:06:36,42.805,6.029,CST-1368DR,4353,4703,11477,01.232,551
2023-03-14T14:09:38,42.805,6.029,CST-1368DR,4353,4702,11474,01.233,551
2023-03-14T14:12:39,42.805,6.029,CST-1368DR,4353,4711,11495,01.226,551
2023-03-14T14:15:41,42.805,6.029,CST-1368DR,4353,4704,11478,01.231,551
2023-03-14T14:18:43,42.805,6.029,CST-1368DR,4353,4704,11477,01.232,551
2023-03-14T14:21:44,42.805,6.029,CST-1368DR,4353,4704,11477,01.232,551
2023-03-14T14:24:46,42.805,6.029,CST-1368DR,4353,4704,11478,01.231,551
2023-03-14T14:27:47,42.805,6.029,CST-1368DR,4353,4702,11473,01.233,551
2023-03-14T14:30:49,42.805,6.029,CST-1368DR,4353,4703,11476,01.232,551
2023-03-14T14:33:50,42.805,6.029,CST-1368DR,4353,4706,11482,01.230,551
2023-03-14T14:36:52,42.805,6.029,CST-1368DR,4353,4710,11493,01.226,551
2023-03-14T14:39:54,42.805,6.029,CST-1368DR,4353,4703,11477,01.232,551
2023-03-14T14:42:55,42.805,6.029,CST-1368DR,4353,4702,11473,01.233,551
2023-03-14T14:45:57,42.805,6.029,CST-1368DR,4353,4709,11491,01.227,551
2023-03-14T14:48:58,42.805,6.029,CST-1368DR,4353,4703,11477,01.232,551
2023-03-14T14:52:00,42.805,6.029,CST-1368DR,4353,4705,11480,01.231,551
2023-03-14T14:55:01,42.805,6.029,CST-1368DR,4353,4703,11477,01.232,551
2023-03-14T14:58:03,42.805,6.029,CST-1368DR,4353,4706,11482,01.230,551
2023-03-14T15:01:05,42.805,6.029,CST-1368DR,4353,4706,11483,01.230,551
2023-03-14T15:04:06,42.805,6.029,CST-1368DR,4353,4704,11477,01.232,551
2023-03-14T15:07:08,42.805,6.029,CST-1368DR,4353,4699,11466,01.236,551
2023-03-14T15:10:09,42.805,6.029,CST-1368DR,4353,4702,11474,01.233,551
2023-03-14T15:13:11,42.805,6.029,CST-1368DR,4353,4701,11472,01.234,551
2023-03-14T15:16:13,42.805,6.029,CST-1368DR,4353,4702,11474,01.233,551
2023-03-14T15:19:14,42.805,6.029,CST-1368DR,4353,4700,11469,01.235,551
2023-03-14T15:22:16,42.805,6.029,CST-1368DR,4353,4701,11470,01.234,551
2023-03-14T15:25:17,42.805,6.029,CST-1368DR,4353,4708,11488,01.228,551
2023-03-14T15:28:19,42.805,6.029,CST-1368DR,4353,4703,11475,01.233,551
2023-03-14T15:31:20,42.805,6.029,CST-1368DR,4353,4701,11472,01.234,551
2023-03-14T15:34:22,42.805,6.029,CST-1368DR,4353,4703,11475,01.233,551
2023-03-14T15:37:24,42.805,6.029,CST-1368DR,4353,4702,11474,01.233,551
2023-03-14T15:40:25,42.805,6.029,CST-1368DR,4353,4699,11465,01.236,551
2023-03-14T15:43:27,42.805,6.029,CST-1368DR,4353,4704,11478,01.231,551
2023-03-14T15:46:28,42.805,6.029,CST-1368DR,4353,4699,11465,01.236,551
2023-03-14T15:49:30,42.805,6.029,CST-1368DR,4353,4704,11477,01.232,551
2023-03-14T15:52:31,42.805,6.029,CST-1368DR,4353,4705,11480,01.231,551
2023-03-14T15:55:33,42.805,6.029,CST-1368DR,4353,4702,11473,01.233,551
2023-03-14T15:58:35,42.805,6.029,CST-1368DR,4353,4705,11481,01.230,551
2023-03-14T16:01:36,42.805,6.029,CST-1368DR,4353,4707,11485,01.229,551
2023-03-14T16:04:38,42.805,6.029,CST-1368DR,4353,4700,11468,01.235,551
2023-03-14T16:07:39,42.805,6.029,CST-1368DR,4353,4702,11473,01.233,551
2023-03-14T16:10:41,42.805,6.029,CST-1368DR,4353,4704,11478,01.231,551
2023-03-14T16:13:42,42.805,6.029,CST-1368DR,4353,4707,11486,01.229,551
2023-03-14T16:16:44,42.805,6.029,CST-1368DR,4353,4704,11478,01.231,551
2023-03-14T16:19:46,42.805,6.029,CST-1368DR,4353,4704,11478,01.231,551
2023-03-14T16:22:47,42.805,6.029,CST-1368DR,4353,4703,11476,01.232,551
2023-03-14T16:25:49,42.805,6.029,CST-1368DR,4353,4702,11474,01.233,551
2023-03-14T16:28:50,42.805,6.029,CST-1368DR,4353,4705,11480,01.231,551
2023-03-14T16:31:52,42.805,6.029,CST-1368DR,4353,4705,11482,01.230,551
2023-03-14T16:34:54,42.805,6.029,CST-1368DR,4353,4706,11483,01.230,551
2023-03-14T16:37:55,42.805,6.029,CST-1368DR,4353,4706,11484,01.229,551